Погода в Белокурихе

Россия / Алтайский край     51°59′45″N   84°59′02″E
темп.,
°C
ветер,
м/с
пор.,
м/с
влажн.,
%
обл.,
%
осадки,
мм/ч
давл.,
гПа
погр.,
м
11 мая, вт
вт1101:00+6св1170100 0.0 101113
04:00+5сз1173100 0.0 101133
07:00+5зсз227393 0.0 1012177
10:00+9сз335755 0.0 1012671
13:00+12сз344899 0.0 10121206
16:00+15сз3440100 0.0 10121815
19:00+14сз2346100 0.0 10131264
22:00+10юз2258100 0.0 101517
12 мая, ср
ср1201:00+10ююз2261100 0.0 101428
04:00+9зюз2263100 0.0 101435
07:00+9юз127290 0.3 101573
10:00+12зсз3364100 1.0 1015436
13:00+15сз455098 2.1 10151533
16:00+14с4558100 0.8 10151155
19:00+13св3569100 2.4 1016403
22:00+9ююз3387100 0.8 101842
13 мая, чт
чт1301:00+9ююз228598 0.8 101841
04:00+7ююз229060 0.0 101731
07:00+8ююз238633 0.1 101791
10:00+14сз23615 0.9 1016695
13:00+15зсз335541 2.9 10151526
16:00+14сз235899 0.6 1014898
19:00+13з356493 1.1 1014277
22:00+9з2385100 0.0 101680
14 мая, пт
пт1401:00+9з2391100 0.4 1015122
04:00+9ююз2391100 3.2 1014105
07:00+8зсз3692100 3.6 1015570
10:00+8з3691100 2.3 1018604
13:00+13сз455068 2.7 10192007
16:00+12зсз566090 0.0 1020987
19:00+12зюз236354 0.1 1021393
22:00+8ю117256 0.0 102419
15 мая, сб
сб1501:00+7ю117814 0.0 102514
04:00+5ю228280 0.0 102522
07:00+7ююз227613 0.0 102668
10:00+13сз1155100 0.0 1026820
13:00+15ссз2250100 0.0 10251096
16:00+17ссз2246100 0.0 10231136
19:00+16ссв01504 0.0 1023582
22:00+11ю22705 0.0 102414